Seattle, WA

12:28 PM PST on December 15, 2019 (GMT -0800)
Seattle-Tacoma International

Weather History for KSEA - June, 2019

Change the Weather History Date:

Saturday, June 1, 2019

  Actual Average Record
Temperature  
Mean Temperature 65 °F 59 °F  
Max Temperature 76 °F 67 °F 94 °F (1970)
Min Temperature 53 °F 50 °F 40 °F (1951)
Degree Days  
Heating Degree Days 0 7  
Month to date heating degree days 0 7  
Since 1 June heating degree days 0 7  
Since 1 July heating degree days 4008 4560  
Cooling Degree Days 0 0  
Month to date cooling degree days 0 0  
Year to date cooling degree days 21 6  
Since 1 June cooling degree days 0 0  
Growing Degree Days 14 (Base 50)    
Moisture  
Dew Point 51 °F    
Average Humidity 68    
Maximum Humidity 93    
Minimum Humidity 43    
Precipitation  
Precipitation 0.00 in 0.07 in 1.75 in (1968)
Month to date precipitation 0.00 0.07  
Year to date precipitation 13.97 17.51  
Sea Level Pressure  
Sea Level Pressure 30.03 in    
Wind  
Wind Speed 6 mph (WSW)    
Max Wind Speed 15 mph    
Max Gust Speed 18 mph    
Visibility 6 miles    
Events Fog    
T = Trace of Precipitation, MM = Missing Value Source: NWS Daily Summary

Daily Weather History Graph

Daily Weather History Graph

Search for Another Location

Airport or City:

Astronomy

Jun. 01, 2019 Rise Set
Actual Time 5:16 AM PDT 8:58 PM PDT
Civil Twilight 4:37 AM PDT 9:37 PM PDT
Nautical Twilight 3:44 AM PDT 10:30 PM PDT
Astronomical Twilight 2:30 AM PDT 11:45 PM PDT
Moon 4:36 AM PDT (6/1) 7:07 PM PDT (6/1)
Length of Visible Light 17h 00m
Length of Day
15h 42m
Waning Crescent, 3% of the Moon is Illuminated
Jun 1
Waning Crescent
Jun 3
New
Jun 9
First Quarter
Jun 17
Full
Jun 25
Last Quarter

Hourly Weather History & Observations

Time (PDT) Temp. Dew Point Humidity Pressure Visibility Wind Dir Wind Speed Gust Speed Precip Events Conditions
12:53 AM 57.0 °F 52.0 °F 83% 30.05 in 10.0 mi WNW 5.8 mph - N/A   Clear
1:53 AM 57.0 °F 52.0 °F 83% 30.04 in 10.0 mi WNW 3.5 mph - N/A   Clear
2:53 AM 54.0 °F 51.1 °F 90% 30.06 in 7.0 mi West 4.6 mph - N/A   Clear
3:53 AM 53.1 °F 50.0 °F 89% 30.05 in 7.0 mi West 3.5 mph - N/A   Clear
4:09 AM 54.0 °F 51.1 °F 90% 30.04 in 6.0 mi West 4.6 mph - N/A   Scattered Clouds
4:16 AM 54.0 °F 51.1 °F 90% 30.04 in 6.0 mi West 3.5 mph - N/A   Mostly Cloudy
4:53 AM 54.0 °F 52.0 °F 93% 30.05 in 1.5 mi WSW 4.6 mph - N/A   Mostly Cloudy
5:38 AM 54.0 °F 52.0 °F 93% 30.04 in 0.8 mi SSW 4.6 mph - N/A   Mostly Cloudy
5:53 AM 54.0 °F 51.1 °F 90% 30.05 in 1.5 mi South 6.9 mph - N/A   Mostly Cloudy
6:53 AM 54.0 °F 50.0 °F 86% 30.07 in 1.5 mi South 5.8 mph - N/A   Overcast
7:53 AM 54.0 °F 51.1 °F 90% 30.08 in 1.0 mi South 3.5 mph - N/A   Overcast
8:39 AM 53.1 °F 51.1 °F 93% 30.07 in 0.5 mi Variable 4.6 mph - N/A Fog Fog
8:53 AM 53.1 °F 51.1 °F 93% 30.09 in 0.5 mi SSW 4.6 mph - N/A Fog Fog
9:40 AM 54.0 °F 50.0 °F 86% 30.07 in 1.0 mi South 5.8 mph - N/A   Overcast
9:53 AM 54.0 °F 51.1 °F 90% 30.08 in 1.0 mi South 3.5 mph - N/A   Overcast
10:15 AM 55.0 °F 51.1 °F 86% 30.06 in 2.0 mi SSE 4.6 mph - N/A   Overcast
10:53 AM 55.0 °F 51.1 °F 86% 30.08 in 3.0 mi SSW 4.6 mph - N/A   Overcast
11:50 AM 57.2 °F 51.8 °F 82% 30.05 in 8.0 mi Variable 4.6 mph - N/A   Overcast
11:53 AM 57.9 °F 52.0 °F 81% 30.07 in 8.0 mi SSW 4.6 mph - N/A   Overcast
12:53 PM 60.1 °F 52.0 °F 75% 30.06 in 10.0 mi Variable 5.8 mph - N/A   Mostly Cloudy
12:59 PM 61.0 °F 52.0 °F 72% 30.04 in 10.0 mi WSW 4.6 mph - N/A   Mostly Cloudy
1:53 PM 66.0 °F 53.1 °F 63% 30.04 in 10.0 mi WSW 6.9 mph - N/A   Mostly Cloudy
2:53 PM 68.0 °F 54.0 °F 61% 30.03 in 10.0 mi Variable 3.5 mph - N/A   Mostly Cloudy
3:53 PM 72.0 °F 54.0 °F 53% 30.00 in 10.0 mi West 8.1 mph - N/A   Mostly Cloudy
4:53 PM 73.9 °F 53.1 °F 48% 29.99 in 10.0 mi West 6.9 mph - N/A   Mostly Cloudy
5:53 PM 75.0 °F 53.1 °F 46% 29.97 in 10.0 mi West 6.9 mph - N/A   Scattered Clouds
6:53 PM 75.0 °F 51.1 °F 43% 29.96 in 10.0 mi NNW 5.8 mph - N/A   Scattered Clouds
7:53 PM 73.0 °F 53.1 °F 49% 29.95 in 10.0 mi NNE 11.5 mph - N/A   Partly Cloudy
8:53 PM 70.0 °F 54.0 °F 57% 29.96 in 10.0 mi NNE 10.4 mph - N/A   Partly Cloudy
9:53 PM 66.9 °F 50.0 °F 54% 29.97 in 10.0 mi NNE 10.4 mph - N/A   Partly Cloudy
10:53 PM 64.9 °F 46.9 °F 52% 29.96 in 10.0 mi NNE 15.0 mph - N/A   Clear
11:53 PM 60.1 °F 48.0 °F 64% 29.97 in 10.0 mi WNW 4.6 mph - N/A   Clear